Regional Weather Roundup
Issued by NWS

Home | Current Version | Previous Version | Text Only | Print | Product List | Glossary On
Versions: 1 2 3 4 5 6 7 8 9 10 11 12 13 14 15 16 17 18 19 20 21 22 23 24 25 26 27 28 29 30 31 32 33 34 35 36 37 38 39 40 41 42 43 44 45 46 47 48 49 50
000
ASUS43 KTOP 240659
RWRKS

WEATHER ROUNDUP FOR KANSAS
NATIONAL WEATHER SERVICE GOODLAND KS
100 AM CST SAT FEB 24 2018

NOTE:  "FAIR" INDICATES FEW OR NO CLOUDS BELOW 12,000 FEET WITH NO
SIGNIFICANT WEATHER AND/OR OBSTRUCTIONS TO VISIBILITY.

KSZ001>006-013>018-027>032-041>047-240800-
NORTHWEST KANSAS

CITY           SKY/WX    TMP DP  RH WIND       PRES   REMARKS
GOODLAND       CLOUDY    24  24 100 S3        29.94F FOG
HAYS           MIX PCPN  29  27  92 E12       30.04F FOG     WCI  19
HILL CITY      CLOUDY    28  24  85 NE13      30.04F WCI  17
RUSSELL        MIX PCPN  32  30  92 E12       30.04F FOG     WCI  23
$$

KSZ061>065-074>080-084>089-240800-
SOUTHWEST KANSAS

CITY           SKY/WX    TMP DP  RH WIND       PRES   REMARKS
DODGE CITY     CLOUDY    28  26  92 E9        29.96F FOG
GARDEN CITY    CLOUDY    28  27  96 E7        29.97R FOG
GREAT BEND     MIX PCPN  29  27  92 E10       30.04F FOG     WCI  20
LIBERAL        MIX PCPN  29  28  96 E10       29.96F WCI  20
$$

KSZ066>073-081>083-090>101-240800-
SOUTHEAST KANSAS

CITY           SKY/WX    TMP DP  RH WIND       PRES   REMARKS
CHANUTE        MIX PCPN  36  35  96 NE8       30.03S FOG
COFFEYVILLE    CLOUDY    39  39 100 NE8       30.01F FOG
HUTCHINSON     CLOUDY    31  31 100 NE5       30.03F FOG
MEDICINE LODGE   N/A     31  31 100 NE6       30.02F
NEWTON         LGT SNOW  31  30  96 NE10      30.04F FOG     WCI  22
PARSONS        LGT RAIN  38  38 100 VRB6      30.02F FOG
WICHITA INTL   DRIZZLE   33  33 100 N9        30.03F FOG
WICHITA JABRA  CLOUDY    32  32 100 NE9       30.03F FOG
WICHITA MCCONL LGT RAIN  32  32  99 NE6       30.02F FOG
WINFIELD       CLOUDY    34  34 100 NE9       30.02F FOG
$$

KSZ007>012-019>026-033>040-048>060-102>105-240800-
NORTHEAST KANSAS

CITY           SKY/WX    TMP DP  RH WIND       PRES   REMARKS
CONCORDIA      CLOUDY    29  26  89 NE9       30.08F
EMPORIA        MIX PCPN  32  30  92 NE10      30.05F FOG     WCI  24
LAWRENCE       LGT RAIN  34  33  96 NE8       30.09F FOG
MANHATTAN      LGT RAIN  33  30  88 NE9       30.09F FOG
OLATHE IND     MIX PCPN  33  33 100 NE13      30.07F FOG     WCI  24
OLATHE EXE     CLOUDY    32  32 100 NE15      30.06F FOG     WCI  22
SALINA         CLOUDY    33  31  92 NE8G18    30.07F FOG
TOPEKA BILLARD LGT RAIN  34  33  96 NE8       30.09F FOG
TOPEKA FORBES  LGT RAIN  34  32  92 NE8       30.07F FOG
$$




USA.gov is the U.S. government's official web portal to all federal, state and local government web resources and services.